Location: Lane
(33.5226°N, 79.8788°W)
Time: 08:35:40
(UTC+00:00)

Tiros 1 despin weight - Pass Details

Date: 11 October 2022
Orbit: 590 x 637 km, 48.2° (Epoch: 28 November)

Event Time Altitude Azimuth Distance (km) Brightness Sun altitude
Rises 20:21:54 0° 301° (WNW) 2,832 ? 28.3°
Reaches altitude 10° 20:25:35 10° 332° (NNW) 1,941 ? 27.6°
Maximum altitude 20:27:23 12° 356° (N) 1,806 ? 27.3°
Drops below altitude 10° 20:29:12 10° 21° (NNE) 1,953 ? 27.0°
Sets 20:32:56 0° 52° (NE) 2,871 ? 26.3°
